Location: Bad Salzschlirf
(50.3750°N, 9.3000°E)
Time: 07:53:54
(UTC+01:00)

ISS - Pass Details

Date: 09 December 2018
Orbit: 401 x 408 km, 51.6° (Epoch: 12 December)

Event Time Altitude Azimuth Distance (km) Brightness Sun altitude
Rises 18:19:28 0° 286° (WNW) 2,319 1.0 -18.1°
Reaches altitude 10° 18:21:36 10° 280° (W) 1,457 0.0 -18.4°
Maximum altitude 18:24:43 41° 208° (SSW) 592 -2.7 -18.9°
Enters shadow 18:25:51 29° 159° (SSE) 770 -2.5 -19.1°
